Temp
-14 -16 -15 -14 -14 -13 -12 -13 -12 -12 -12 -12 -13 -13 -13 -13 -12 -13 -13 -13 -13 -13 -13 -13 -13 -13 -12 -12 -12 -12 -12 -12 -11 -11 -11 -11 -11 -12
-14 -14 -15 -15 -14 -14 -13 -12 -13 -12 -12 -13 -13 -13 -13 -12 -12 -13 -13 -13 -13 -13 -13 -13 -13 -13 -12 -12 -12 -12 -12 -11 -11 -11 -11 -11 -12 -12
-14 -13 -14 -14 -15 -14 -12 -13 -12 -12 -12 -13 -13 -13 -13 -12 -12 -12 -13 -13 -13 -13 -13 -13 -13 -13 -13 -12 -12 -12 -11 -11 -11 -11 -11 -11 -12 -12
-15 -14 -14 -14 -14 -14 -13 -13 -13 -12 -12 -12 -13 -13 -12 -12 -12 -12 -12 -13 -12 -13 -13 -13 -13 -13 -13 -12 -12 -12 -12 -11 -11 -11 -11 -12 -12 -13
-16 -14 -14 -14 -14 -14 -13 -13 -12 -13 -12 -12 -12 -13 -13 -13 -12 -12 -12 -12 -12 -13 -13 -13 -13 -12 -12 -12 -12 -11 -11 -11 -11 -11 -12 -12 -13 -13
-17 -16 -14 -14 -14 -14 -14 -13 -13 -13 -12 -12 -13 -12 -13 -13 -13 -12 -12 -12 -12 -12 -12 -12 -12 -12 -12 -12 -11 -11 -11 -11 -11 -11 -12 -12 -13 -14
-18 -17 -16 -15 -14 -15 -14 -13 -13 -13 -12 -12 -13 -13 -13 -13 -13 -13 -13 -13 -12 -12 -12 -12 -12 -12 -12 -11 -11 -11 -11 -11 -12 -12 -13 -13 -13 -14
-18 -18 -17 -16 -15 -15 -16 -14 -14 -13 -13 -13 -13 -12 -12 -13 -13 -12 -13 -13 -13 -12 -12 -12 -12 -12 -12 -12 -12 -12 -12 -12 -12 -13 -14 -14 -14 -14
-18 -18 -18 -17 -16 -15 -16 -15 -14 -13 -13 -13 -13 -13 -13 -13 -13 -12 -12 -13 -13 -13 -13 -13 -12 -12 -12 -12 -12 -12 -12 -12 -13 -13 -14 -14 -14 -14
-18 -18 -18 -18 -17 -16 -15 -16 -15 -13 -13 -13 -13 -12 -13 -13 -12 -12 -12 -12 -12 -13 -13 -13 -13 -13 -13 -13 -13 -13 -13 -13 -13 -13 -13 -14 -14 -14
-18 -18 -18 -18 -17 -17 -16 -15 -16 -14 -13 -13 -13 -12 -13 -13 -12 -12 -12 -12 -12 -13 -13 -13 -13 -13 -13 -13 -13 -13 -13 -13 -13 -13 -13 -14 -14 -14
-18 -18 -18 -18 -18 -18 -17 -16 -15 -15 -13 -13 -13 -13 -13 -13 -13 -13 -12 -12 -12 -12 -13 -13 -13 -13 -13 -13 -13 -13 -13 -13 -13 -13 -13 -14 -14 -14
-19 -20 -19 -19 -18 -18 -18 -17 -16 -15 -15 -14 -14 -14 -14 -13 -13 -12 -13 -12 -12 -13 -13 -13 -13 -13 -13 -13 -13 -13 -13 -13 -13 -13 -14 -14 -14 -13
-20 -20 -20 -20 -20 -19 -19 -18 -17 -16 -16 -15 -14 -14 -13 -13 -13 -12 -12 -13 -12 -13 -13 -12 -13 -13 -13 -13 -13 -14 -13 -13 -13 -13 -13 -13 -13 -13
-21 -21 -21 -20 -20 -20 -19 -19 -18 -17 -16 -15 -15 -14 -13 -13 -13 -12 -12 -13 -13 -13 -13 -13 -12 -13 -13 -13 -13 -13 -13 -13 -13 -14 -13 -13 -13 -13
-23 -21 -21 -21 -21 -21 -20 -20 -19 -18 -17 -16 -15 -14 -14 -15 -14 -14 -13 -12 -13 -13 -12 -12 -13 -12 -12 -12 -13 -13 -13 -13 -13 -13 -14 -13 -13 -13
-25 -24 -22 -22 -21 -21 -21 -21 -20 -19 -19 -17 -17 -16 -15 -15 -14 -14 -14 -13 -13 -13 -12 -12 -12 -12 -12 -12 -13 -12 -12 -13 -13 -12 -12 -12 -13 -13
-25 -25 -24 -23 -22 -21 -21 -21 -20 -20 -20 -19 -18 -18 -16 -16 -15 -15 -14 -14 -13 -12 -12 -13 -13 -12 -12 -12 -13 -12 -12 -12 -12 -12 -12 -12 -12 -12
-25 -25 -25 -25 -24 -22 -21 -21 -21 -20 -19 -20 -19 -19 -18 -17 -16 -15 -14 -14 -13 -13 -12 -13 -13 -13 -13 -12 -12 -13 -13 -12 -12 -12 -12 -12 -12 -11
-26 -25 -25 -25 -25 -25 -23 -22 -21 -20 -20 -19 -20 -19 -19 -19 -18 -17 -15 -15 -13 -13 -13 -13 -13 -13 -13 -13 -13 -13 -13 -12 -12 -12 -12 -12 -12 -12
-26 -26 -26 -26 -25 -25 -25 -24 -23 -21 -20 -20 -19 -19 -20 -19 -19 -18 -17 -16 -15 -13 -13 -13 -13 -13 -13 -13 -13 -13 -13 -13 -12 -12 -12 -12 -12 -12
-27 -27 -27 -26 -26 -25 -25 -25 -24 -23 -22 -21 -20 -20 -19 -19 -19 -19 -18 -18 -17 -15 -14 -13 -13 -14 -14 -14 -13 -13 -13 -12 -12 -12 -12 -12 -12 -12
-28 -28 -27 -27 -27 -26 -26 -25 -24 -25 -24 -23 -22 -20 -19 -19 -19 -19 -19 -18 -18 -17 -17 -15 -15 -14 -15 -14 -15 -14 -13 -13 -13 -13 -13 -12 -12 -12
Height
5623 5635 5646 5656 5667 5676 5687 5700 5709 5716 5726 5737 5745 5758 5768 5777 5785 5791 5796 5802 5807 5813 5818 5825 5830 5835 5840 5844 5848 5852 5856 5858 5861 5862 5864 5865 5866 5866
5608 5620 5632 5642 5652 5663 5675 5688 5696 5707 5718 5732 5741 5751 5760 5768 5776 5781 5789 5795 5800 5805 5810 5816 5822 5827 5832 5837 5842 5846 5849 5853 5855 5857 5859 5860 5861 5861
5594 5606 5616 5627 5639 5650 5662 5676 5685 5691 5705 5717 5729 5737 5744 5754 5763 5771 5780 5785 5792 5798 5803 5808 5813 5819 5824 5829 5834 5838 5843 5846 5849 5851 5853 5855 5856 5856
5579 5591 5601 5614 5625 5637 5649 5662 5672 5681 5684 5703 5716 5725 5734 5744 5753 5763 5771 5777 5783 5789 5795 5801 5805 5810 5816 5820 5826 5831 5835 5839 5843 5845 5848 5849 5851 5852
5567 5577 5588 5600 5612 5623 5634 5648 5661 5670 5678 5690 5702 5712 5722 5731 5740 5751 5759 5765 5772 5778 5784 5790 5796 5801 5807 5813 5818 5823 5826 5831 5835 5838 5840 5842 5844 5846
5555 5564 5575 5586 5599 5608 5622 5636 5647 5659 5669 5680 5692 5699 5709 5719 5728 5738 5747 5754 5762 5768 5773 5780 5788 5794 5800 5804 5810 5814 5819 5824 5828 5831 5834 5836 5837 5839
5546 5553 5562 5573 5587 5597 5608 5620 5633 5646 5658 5668 5677 5688 5698 5705 5715 5725 5734 5747 5753 5759 5764 5770 5779 5786 5792 5797 5803 5808 5813 5818 5822 5824 5827 5829 5830 5832
5538 5545 5552 5561 5573 5586 5596 5608 5620 5632 5644 5656 5665 5675 5687 5697 5703 5712 5722 5729 5738 5748 5753 5760 5767 5776 5784 5789 5795 5800 5804 5808 5812 5815 5817 5820 5822 5824
5530 5536 5543 5551 5561 5573 5583 5594 5605 5616 5631 5642 5653 5662 5673 5684 5691 5699 5708 5719 5728 5739 5744 5750 5755 5764 5772 5779 5784 5789 5793 5797 5800 5804 5807 5810 5813 5816
5522 5528 5535 5542 5550 5560 5570 5580 5590 5603 5615 5627 5635 5648 5659 5669 5676 5687 5695 5694 5702 5720 5728 5733 5741 5748 5757 5766 5772 5777 5783 5787 5791 5794 5798 5801 5804 5807
5513 5519 5526 5532 5540 5550 5558 5568 5576 5588 5601 5613 5623 5634 5644 5652 5663 5672 5682 5688 5697 5707 5712 5719 5729 5738 5744 5752 5760 5766 5771 5775 5780 5783 5786 5790 5793 5796
5503 5508 5514 5521 5528 5537 5544 5553 5562 5573 5585 5598 5607 5617 5627 5635 5646 5656 5666 5673 5680 5692 5703 5705 5715 5724 5730 5738 5747 5753 5758 5763 5767 5772 5776 5779 5782 5783
5493 5498 5503 5509 5516 5523 5531 5539 5547 5558 5569 5580 5589 5602 5611 5622 5632 5641 5651 5659 5665 5676 5688 5691 5700 5708 5714 5725 5732 5739 5745 5750 5754 5759 5763 5767 5769 5771
5484 5488 5493 5500 5504 5510 5517 5524 5532 5542 5553 5564 5573 5584 5596 5605 5614 5625 5635 5645 5650 5660 5671 5676 5685 5692 5701 5708 5717 5726 5731 5736 5740 5746 5749 5753 5755 5759
5476 5479 5483 5488 5495 5498 5503 5510 5518 5526 5537 5547 5556 5567 5578 5587 5598 5608 5620 5627 5637 5645 5655 5661 5669 5677 5683 5690 5701 5709 5714 5722 5727 5731 5735 5738 5742 5745
5468 5470 5473 5478 5483 5487 5491 5497 5504 5512 5520 5529 5538 5548 5559 5570 5582 5593 5602 5611 5620 5629 5638 5646 5652 5659 5668 5675 5683 5689 5697 5701 5710 5714 5719 5721 5725 5728
5463 5462 5463 5467 5472 5476 5480 5484 5490 5498 5505 5513 5522 5531 5543 5553 5563 5575 5583 5593 5601 5611 5618 5626 5636 5642 5650 5659 5665 5670 5677 5686 5690 5696 5698 5705 5709 5713
5459 5457 5456 5457 5461 5466 5469 5473 5477 5484 5492 5499 5507 5516 5525 5535 5546 5557 5567 5576 5585 5595 5603 5608 5614 5622 5632 5641 5648 5652 5660 5667 5672 5677 5681 5685 5693 5696
5453 5453 5452 5451 5451 5454 5459 5463 5466 5472 5479 5486 5493 5501 5510 5519 5527 5537 5546 5557 5568 5576 5583 5590 5596 5603 5610 5620 5628 5634 5640 5646 5654 5658 5663 5667 5670 5674
5448 5448 5447 5446 5446 5447 5447 5450 5456 5460 5467 5474 5481 5488 5496 5504 5512 5521 5529 5537 5547 5555 5563 5572 5579 5586 5593 5600 5607 5614 5620 5626 5631 5637 5642 5647 5649 5654
5445 5443 5442 5441 5440 5441 5442 5442 5445 5448 5454 5461 5468 5475 5483 5490 5498 5506 5513 5520 5528 5536 5544 5552 5560 5568 5576 5582 5588 5594 5601 5606 5611 5615 5622 5626 5629 5633
5442 5439 5438 5437 5436 5436 5437 5437 5437 5440 5443 5448 5455 5461 5469 5477 5484 5489 5497 5504 5510 5517 5525 5533 5540 5547 5555 5563 5570 5575 5581 5588 5593 5597 5602 5606 5609 5612
5438 5436 5434 5432 5432 5431 5431 5432 5432 5433 5435 5438 5442 5447 5454 5462 5467 5474 5481 5487 5494 5501 5507 5514 5521 5527 5535 5542 5549 5555 5561 5567 5572 5578 5582 5585 5588 5591
Wind_Speed
70 69 67 64 63 65 79 59 52 60 58 53 58 60 57 54 52 52 49 49 49 46 44 41 39 37 34 32 30 28 27 25 24 23 22 21 21 20
71 70 69 67 67 66 69 66 54 58 64 63 58 54 54 56 56 55 52 50 49 48 47 45 42 40 37 34 33 31 29 28 26 24 23 22 22 20
67 73 71 71 66 72 72 71 67 54 61 67 62 58 59 61 61 58 56 55 52 50 49 47 45 43 40 37 36 33 31 29 27 25 25 23 22 18
56 72 72 72 71 68 69 69 63 64 74 72 67 64 61 59 60 60 58 58 55 53 51 49 48 46 43 41 38 35 33 30 27 25 24 23 21 19
54 63 74 73 71 72 73 82 73 61 70 75 69 67 63 62 63 64 64 62 59 58 57 55 53 49 46 43 41 38 37 33 29 26 26 25 23 22
54 59 68 72 74 73 67 74 77 69 65 76 73 72 70 67 66 65 66 66 63 62 61 58 55 51 48 46 44 42 40 36 31 29 27 26 25 25
49 56 61 68 76 74 71 72 70 71 85 65 76 74 72 71 69 66 66 65 65 64 63 60 57 54 50 48 45 43 40 36 31 30 28 29 29 29
42 50 56 65 75 78 77 73 69 71 78 78 81 81 77 73 70 68 68 68 69 67 65 62 60 57 52 50 47 44 42 38 35 32 32 34 35 34
38 42 49 57 65 72 79 75 73 77 77 75 78 78 78 75 73 72 70 68 65 65 65 62 61 59 57 55 53 50 48 44 41 38 37 37 38 38
40 39 41 47 56 66 75 75 75 80 77 81 78 78 78 83 81 77 73 59 65 67 66 66 66 63 61 58 56 53 49 46 43 42 41 41 41 41
43 44 44 44 48 58 72 79 78 75 84 74 80 80 80 77 88 86 74 74 74 70 67 66 66 64 62 58 55 52 48 46 45 45 43 44 45 44
44 49 51 53 50 55 61 73 76 77 80 79 81 82 89 74 84 85 84 79 81 72 72 70 67 64 63 59 56 53 50 49 48 47 46 46 46 47
36 40 45 50 54 56 60 63 74 78 79 77 82 80 78 91 87 79 77 79 90 82 79 74 71 69 67 65 63 59 55 52 54 53 51 51 51 52
36 38 41 45 44 52 61 66 67 75 78 78 83 83 81 75 77 93 91 78 80 78 75 70 75 71 71 70 68 66 64 61 59 57 56 54 53 52
33 42 40 40 40 41 54 65 70 69 78 82 81 83 86 81 73 73 89 83 84 76 74 80 76 76 74 73 70 69 70 66 65 65 64 63 61 60
19 31 41 41 39 36 41 50 64 69 72 81 84 84 84 85 77 72 86 97 96 92 91 87 82 83 79 78 76 74 72 67 65 67 68 70 69 67
11 20 29 34 37 40 40 43 53 63 67 74 80 83 85 82 79 75 80 83 79 74 77 86 91 82 78 76 75 74 67 66 65 65 69 68 68 67
13 10 17 28 36 38 38 41 44 58 59 63 73 77 80 82 82 82 79 77 78 77 74 69 76 90 95 83 73 76 77 73 69 65 71 68 66 69
16 14 8 15 25 35 37 41 41 46 53 54 63 70 73 78 81 84 81 83 82 80 74 69 69 65 79 89 83 85 84 81 78 83 81 75 70 73
16 16 16 10 11 18 29 35 43 44 48 51 56 65 71 71 74 75 83 86 86 86 81 76 71 68 64 69 79 83 77 74 73 74 78 77 74 71
14 15 15 18 14 10 16 26 36 41 49 53 55 58 69 71 71 70 72 82 88 91 86 82 77 73 77 72 67 66 64 65 65 60 62 68 68 60
13 14 14 14 17 17 13 16 24 37 43 49 54 57 66 67 66 71 70 70 76 85 87 87 87 83 83 81 78 74 72 73 73 71 69 66 66 68
13 13 14 14 14 17 21 16 17 19 25 39 47 53 56 64 62 65 62 64 68 70 80 86 88 87 84 85 84 87 81 81 82 81 76 73 71 73
Wind_Direction
222 223 224 223 222 220 211 207 213 223 222 216 210 209 208 210 209 212 208 206 205 204 207 209 213 217 220 222 226 231 237 241 244 248 252 256 259 263
222 221 222 222 220 224 222 212 224 218 220 216 215 212 210 210 211 210 211 210 208 207 209 211 214 218 221 223 226 230 234 239 242 245 248 252 256 258
223 220 221 222 223 219 219 221 218 217 215 216 215 212 211 211 212 212 212 213 210 210 213 213 215 218 221 222 226 229 231 236 241 245 248 251 252 253
219 221 222 220 224 223 215 207 208 210 208 218 213 215 215 214 214 214 214 217 215 213 215 216 216 217 220 223 226 229 232 235 239 244 246 247 248 245
212 218 221 221 222 220 211 214 211 216 210 208 215 214 217 216 217 215 216 216 218 218 217 217 220 221 223 225 227 229 232 234 236 240 242 243 240 240
213 213 217 221 220 220 210 211 212 209 213 215 212 217 215 217 219 218 219 220 220 222 225 223 223 225 226 229 230 232 235 236 236 240 240 240 241 243
217 214 213 216 220 224 224 206 208 213 212 210 217 219 218 217 220 220 221 221 223 224 227 230 230 231 231 233 235 237 240 242 242 241 239 240 242 243
221 218 215 212 216 222 225 215 207 206 209 213 216 220 220 222 220 222 223 223 223 226 228 230 234 237 237 239 239 240 243 243 243 237 234 237 242 245
217 215 217 215 214 216 222 225 222 205 209 205 213 219 222 220 223 223 226 228 227 226 228 231 236 238 239 240 242 242 240 241 240 238 237 240 242 247
216 213 214 216 218 215 218 226 225 214 208 213 213 213 222 230 227 226 225 223 218 224 225 228 232 237 238 240 241 244 245 244 244 243 240 240 246 249
224 222 217 218 218 217 214 223 227 223 211 214 217 215 220 221 225 223 224 226 231 230 228 228 229 235 240 240 240 241 243 243 241 240 239 239 243 248
220 224 227 226 223 219 220 219 223 228 222 216 218 220 220 216 218 221 225 230 230 231 231 232 232 233 235 238 239 239 240 241 240 241 244 245 247 248
221 222 220 223 224 224 221 221 221 224 228 225 220 216 214 222 218 218 222 233 234 233 231 231 233 234 237 236 237 239 241 240 241 242 243 245 248 248
222 222 224 227 233 232 226 223 222 220 222 228 224 227 224 219 228 224 227 230 229 228 227 229 235 236 237 239 239 239 241 242 242 242 243 243 246 248
233 229 231 228 235 239 233 228 222 221 218 220 224 228 227 225 228 228 221 221 228 228 222 228 237 236 238 241 240 240 242 242 243 245 247 249 250 250
261 240 236 234 232 237 234 229 228 223 221 220 221 225 228 232 232 231 227 227 230 234 236 237 238 238 240 240 241 243 243 243 244 245 246 248 250 252
271 251 242 239 230 231 234 232 231 231 227 222 222 222 225 227 229 231 227 225 228 233 237 238 237 238 237 238 236 240 243 244 246 249 248 246 247 249
303 236 237 237 230 224 228 232 232 233 234 231 226 225 224 223 224 228 226 226 230 233 236 240 236 235 239 238 241 242 244 245 244 250 251 252 251 249
281 286 247 225 236 235 229 230 228 234 236 236 231 229 228 226 224 225 229 224 228 230 232 234 236 235 235 235 240 243 247 246 249 248 250 253 254 254
282 279 282 268 218 236 241 236 230 226 232 239 236 232 229 229 229 226 228 227 227 228 229 230 232 233 236 235 237 240 244 246 248 246 248 249 249 254
287 283 276 281 273 229 223 232 238 235 232 232 234 236 232 232 230 227 230 229 228 229 228 229 233 235 235 233 236 235 238 240 240 237 243 247 246 252
300 290 284 274 272 273 241 218 216 230 229 228 229 229 230 232 237 233 230 231 234 230 232 230 232 232 235 236 233 234 242 243 238 244 250 254 256 256
310 304 292 282 273 266 271 257 221 210 215 226 232 233 232 233 240 235 240 238 232 234 233 232 234 234 234 237 237 238 241 244 245 246 249 254 257 257